Regional Weather Roundup
Issued by NWS

Home | Current Version | Previous Version | Text Only | Print | Product List | Glossary On
Versions: 1 2 3 4 5 6 7 8 9 10 11 12 13 14 15 16 17 18 19 20 21 22 23 24 25 26 27
000
ASPQ40 PGUM 230312
RWRPQ
WEATHER ROUNDUP FOR THE MARIANAS AND MICRONESIA
NATIONAL WEATHER SERVICE TIYAN GU
100 PM CHST THU FEB 23 2017

GUZ001>004-230400-
MARIANA ISLANDS-

CITY           SKY/WX    TMP DP  RH WIND       PRES   REMARKS
GUAM AIRPORT   PTSUNNY   88  75  66 NE16      29.94F HX  97
ANDERSEN AFB   PTSUNNY   82  75  78 E21       29.95F
ROTA AIRPORT   PTSUNNY   82  73  74 E18G25    29.96F
TINIAN AP      MOSUNNY   84  72  65 NE16      29.95F
SAIPAN AP      MOSUNNY   82  73  74 NE21      29.96F

$$

PMZ161-230400-
REPUBLIC OF PALAU-

CITY           SKY/WX    TMP DP  RH WIND       PRES   REMARKS
KOROR AP       PTSUNNY   88  77  70 NE14G23   29.84F HX 100
KOROR WSO      PTSUNNY   88  75  66 E18       29.85F HX  97

$$

PMZ171>174-230400-
FEDERATED STATES OF MICRONESIA-

CITY           SKY/WX    TMP DP  RH WIND       PRES   REMARKS
YAP AIRPORT    PTSUNNY   88  79  74 E9        29.86F HX 102
CHUUK AP       CLOUDY    81  75  83 N13       29.81F
POHNPEI AP     CLOUDY    88  77  70 E15       29.82F HX 100
POHNPEI WSO    PTSUNNY   88  77  70 NE7       29.85F HX 100
KOSRAE AP      NOT AVBL

$$

PMZ181-230400-
REPUBLIC OF THE MARSHALL ISLANDS-

CITY           SKY/WX    TMP DP  RH WIND       PRES   REMARKS
KWAJALEIN AP   MOSUNNY   86  75  70 E18       29.86F HX  95
MAJURO AP      NOT AVBL
MAJURO WSO     PTSUNNY   86  77  74 NE14      29.81F HX  97

$$





USA.gov is the U.S. government's official web portal to all federal, state and local government web resources and services.